Regional Weather Roundup
Issued by NWS State College, PA

Home | Current Version | Previous Version | Graphics & Text | Print | Product List | Glossary Off
Versions: 1 2 3 4 5 6 7 8 9 10 11 12 13 14 15 16 17 18 19 20 21 22 23 24 25 26 27 28 29 30 31 32 33 34 35 36 37 38 39 40 41 42 43 44 45 46 47 48 49 50

000
ASUS41 KCTP 251410
RWRCTP

REGIONAL WEATHER ROUNDUP
NATIONAL WEATHER SERVICE STATE COLLEGE PA
1000 AM EDT SUN JUN 25 2017

Note: "fair" indicates few or no clouds below 12,000 feet with no
significant weather and/or obstructions to visibility.

* = STATION THAT DOES NOT REPORT PRECIPITATION /E.G. RAIN...SNOW...ETC/
    THUNDER OR FOG.

PAZ002>004-007>009-013>016-020>023-029>032-251500-
WESTERN PENNSYLVANIA

CITY           SKY/WX    TMP DP  RH WIND       PRES   REMARKS
ERIE           PTSUNNY   68  54  60 W8        30.02R
MEADVILLE      SUNNY     67  55  65 SW8       30.06R
FRANKLIN*      SUNNY     66  54  63 SW9G16    30.07S
NEW CASTLE     FAIR      69  52  54 W10       30.08S
BEAVER COUNTY  NOT AVBL
BUTLER*        SUNNY     70  55  60 W9        30.08R
PITTSBURGH INT MOSUNNY   69  54  58 W7        30.08R
PITTSBURGH     MOSUNNY   69  53  56 W8        30.08R
INDIANA*       PTSUNNY   68  57  68 VRB7      30.10S
LATROBE        PTSUNNY   68  59  73 SW8       30.10R
WASHINGTON CO* SUNNY     68  52  56 W8        30.12S
$$

PAZ004>006-010>012-017>019-024>028-033>037-041-042-045-046-049>053-251500-
CENTRAL PENNSYLVANIA

CITY           SKY/WX    TMP DP  RH WIND       PRES   REMARKS
BRADFORD       PTSUNNY   63  51  65 W9        30.06R
DUBOIS         SUNNY     65  55  70 W9        30.06S
CLEARFIELD     SUNNY     66  59  78 VRB5      30.07S
JOHNSTOWN      MOSUNNY   66  55  67 W6        30.10R
ALTOONA        MOSUNNY   69  58  67 VRB3      30.08R
STATE COLLEGE  MOSUNNY   70  57  64 SW6       30.06S
WILLIAMSPORT   SUNNY     72  59  63 W9        30.02S
SELINSGROVE    CLOUDY    73  60  63 W5        30.03S
FT INDIANTOWN  SUNNY     76  60  58 W7        30.02S
CAPITAL CITY   MOSUNNY   78  57  48 NW7       30.02S
HARRISBURG     MOSUNNY   76  59  55 NW6       30.01S
YORK           MOSUNNY   77  60  55 NW5       30.03S
$$

PAZ038>040-043-044-047-048-054-055-060>062-067>071-251500-
EASTERN PENNSYLVANIA

CITY           SKY/WX    TMP DP  RH WIND       PRES   REMARKS
SCRANTON       MOSUNNY   72  59  63 W7        30.01F
MOUNT POCONO   NOT AVBL
ALLENTOWN      MOSUNNY   75  58  55 S3        30.01F
QUAKERTOWN*    MOSUNNY   75  61  60 SW5       30.03S
READING        MOSUNNY   76  63  64 CALM      30.01S
LANCASTER      MOSUNNY   76  61  59 NW3       30.02F
COATESVILLE    MOSUNNY   75  59  57 VRB5      30.05S
POTTSTOWN      PTSUNNY   74  61  63 VRB3      30.04S
BLUE BELL      PTSUNNY   75  57  53 CALM      30.03S
DOYLESTOWN     MOSUNNY   75  59  57 VRB3      30.01S
WILLOW GROVE   NOT AVBL
NORTH PHILA    SUNNY     81  60  48 CALM      30.02S
PHILADELPHIA   MOSUNNY   79  57  46 CALM      30.01S
$$



USA.gov is the U.S. government's official web portal to all federal, state and local government web resources and services.